Flag for Japan Weather past 2 weeks in Fukuoka, Japan

Now
79 °F

Partly cloudy.


Feels Like: 81 °F
Forecast: 77 / 81 °F
Wind: 3 mph from Northeast

Location: Fukuoka Airport

Current Time: Aug 23, 2014 at 11:28:50 PM

Latest Report: Aug 23, 2014 at 11:00 PM


Visibility: N/A

Pressure: 29.83 "Hg

Humidity: 74%

Dew point: 70 °F

Location of FukuokaLocation

Historic Weather in Fukuoka — Graph

°F

Fukuoka temperature yesterday

Maximum temperature yesterday: 84 °F (at 1:00 PM)
Minimum temperature yesterday: 72 °F (at 6:30 AM)
Average temperature yesterday: 78 °F

Past Weeks' High & Low Weather Summary

 TemperatureHumidityPressure
High90 °F (Aug 13, 11:30 AM)100% (Aug 10, 1:00 PM)29.95 "Hg (Aug 10, 1:00 PM)
Low70 °F (Aug 11, 5:30 AM)46% (Aug 13, 1:00 PM)29.27 "Hg (Aug 10, 1:30 AM)
Average79 °F82%29.73 "Hg
* Reported Aug 8 10:00 PM — Aug 23 10:30 PM, Fukuoka, Weather by CustomWeather, © 2014

Note: Actual official high and low records may vary slightly from our data, if they occured in-between our weather recording intervals... More about our weather records

Advertising

Fukuoka weather history for previous 24 hours

 ConditionsComfort  
Time TempWeatherWind HumidityBarometerVisibility
10:30 PM
Aug 23
79 °FPartly cloudy.3 mph79%29.83 "HgN/A
10:00 PM79 °FPassing clouds.6 mph79%29.83 "HgN/A
9:30 PM81 °FPassing clouds.3 mph74%29.83 "HgN/A
9:00 PM81 °FPassing clouds.5 mph70%29.83 "HgN/A
8:30 PM81 °FPassing clouds.1 mph70%29.83 "HgN/A
8:00 PM81 °FPassing clouds.3 mph66%29.80 "HgN/A
7:30 PM81 °FPassing clouds.1 mph66%29.80 "HgN/A
7:00 PM81 °FPassing clouds.6 mph70%29.80 "HgN/A
6:30 PM81 °FBroken clouds.7 mph70%29.80 "HgN/A
6:00 PM81 °FBroken clouds.5 mph70%29.80 "HgN/A
5:30 PM82 °FBroken clouds.7 mph70%29.80 "HgN/A
5:00 PM82 °FPartly sunny.7 mph70%29.80 "HgN/A
4:30 PM82 °FBroken clouds.9 mph70%29.80 "HgN/A
4:00 PM82 °FBroken clouds.8 mph70%29.80 "HgN/A
3:30 PM84 °FPartly sunny.9 mph66%29.80 "HgN/A
3:00 PM86 °FPartly sunny.9 mph62%29.80 "HgN/A
2:30 PM84 °FPartly sunny.12 mph66%29.80 "HgN/A
2:00 PM86 °FPartly sunny.10 mph62%29.80 "HgN/A
1:30 PM86 °FPartly sunny.9 mph62%29.83 "HgN/A
1:00 PM86 °FPartly sunny.10 mph62%29.83 "HgN/A
12:30 PM86 °FPartly sunny.7 mph62%29.83 "HgN/A
12:00 PM86 °FBroken clouds.7 mph66%29.83 "HgN/A
11:30 AM86 °FPartly sunny.9 mph66%29.83 "HgN/A
11:00 AM84 °FPartly sunny.12 mph70%29.86 "HgN/A
10:30 AM84 °FPartly sunny.9 mph70%29.86 "HgN/A
9:30 AM82 °FScattered clouds.7 mph70%29.86 "HgN/A
9:00 AM81 °FScattered clouds.1 mph74%29.86 "HgN/A
8:30 AM79 °FPassing clouds.3 mph79%29.86 "HgN/A
8:00 AM77 °FScattered clouds.5 mph83%29.86 "HgN/A
7:30 AM77 °FPartly sunny.3 mph83%29.86 "HgN/A
7:00 AM75 °FPartly sunny.1 mph89%29.86 "HgN/A
6:30 AM73 °FBroken clouds.2 mph94%29.86 "HgN/A
6:00 AM73 °FPartly sunny.2 mph94%29.86 "HgN/A
5:30 AM73 °FPartly cloudy.1 mph89%29.86 "HgN/A
5:00 AM73 °FPassing clouds.2 mph89%29.83 "HgN/A
4:30 AM73 °FPartly cloudy.3 mph89%29.83 "HgN/A
4:00 AM73 °FClear.2 mph94%29.83 "Hg10 mi
3:30 AM73 °FPassing clouds.3 mph94%29.83 "HgN/A
3:00 AM73 °FClear.2 mph89%29.83 "Hg10 mi
2:30 AM73 °FClear.5 mph94%29.83 "Hg10 mi
2:00 AM73 °FPassing clouds.2 mph94%29.86 "HgN/A
1:30 AM73 °FClear.2 mph89%29.86 "Hg10 mi
1:00 AM73 °FClear.2 mph89%29.86 "Hg10 mi
12:30 AM73 °FPassing clouds.1 mph89%29.86 "HgN/A
12:00 AM73 °FPassing clouds.3 mph89%29.86 "HgN/A
11:30 PM
Aug 22
75 °FPassing clouds.1 mph83%29.86 "HgN/A
11:00 PM75 °FPassing clouds.2 mph83%29.86 "HgN/A
Weather by CustomWeather, © 2014

See weather overviewHow to use our weather pages